It's Wednesday,
November 22nd, 2017
User not logged in
[Run Race Header Image][Run Race logo]
  
Race webcasting is attempted by race directors and their support staff. Please remember that conditions under which they're working may make it difficult to post timely webcast updates... your interest and patience is appreciated!
Race Information
Race Name:Kettle 100 Endurance Runs - 2011
Location:LaGrange
State:Wisconsin, United States
 button: button: Webcast Autoplay
Event Information
Name of Event:Kettle 100 solo
Distance:100.00
Measurement:Miles
Date:Saturday June 4th, 2011
button: Assign Numbers 

Event Information
Name of Event:Kettle 100 solo
Distance:100.00
Measurement:Kilometers
Date:Saturday June 4th, 2011
button: Assign Numbers  
Checkpoint:Scuppernong Turnaround
Distance:31.6 Miles
Gun Start Time:Saturday June 4th, 2011 5:59:55.32 am
Calculate Chip Start Time:< not set >
Y or N... Calculate splits based upon participant chip start time?
Allow Early Chip Start Time:< not set >
Y or N... Allow participants a chip start time prior to gun start?
Pos Race
Number
NameAgeSexTimePace 
1133Joshua Wopata29M4:26:20.78:25.7
2229Jeff Friedman27M5:01:08.09:31.8
3228Gordon Freeman26M5:05:06.49:39.3
4257Michael Quaranto33M5:08:30.79:45.8
5250adam mcroberts36M5:15:49.49:59.7
6202Matt Aro32M5:22:26.110:12.2
7210John Cash37M5:25:31.810:18.1
8214Matthew Condron44M5:35:13.010:36.5
9238Stuart Johnson51M5:46:32.610:58.0
10220Scott DeWitt33M5:46:52.710:58.6
11209Bruce Carriedo53M5:48:03.311:00.9
12260steven sjolund60M5:56:56.011:17.7
13223Steve Emmert43M5:56:57.211:17.8
14201Lucia Alzaga35F6:05:10.811:33.4
15243Lee Krautkramer45M6:06:18.111:35.5
16219Michael Davenport52M6:10:05.511:42.7
17268Paul Wilkerson35M6:10:39.111:43.8
18267Steve Wessel55M6:15:17.511:52.6
19235William Hutchinson41M6:15:57.011:53.8
20212Jeff Christian37M6:16:43.411:55.3
21237Paul Johnson25M6:18:10.211:58.0
22245Maureen Mahr32F6:22:24.412:06.1
23226Darren Fortney43M6:22:39.812:06.6
24203Alec Bath41M6:23:06.512:07.4
25216Shelley Cook36F6:26:21.912:13.6
26252Danny Miller31M6:39:17.312:38.1
27270Brian Woods46M6:41:24.812:42.2
28236piotr janczyk39M6:41:31.312:42.4
29254Mark Nowotny51M6:41:49.412:43.0
30206Kelcy Boettcher34F6:43:29.812:46.1
31239Dorn Petty52M6:59:59.213:17.4
32232Michele Hartwig44F7:00:49.813:19.0
33244Craig LeBlanc42M7:06:51.913:30.5
34211Katie Cech36F7:06:52.413:30.5
35241Mark Kasmer29M7:07:05.213:30.9
36261Tyler Stewart22M7:11:20.013:39.0
37207Jeffery Bott39M7:14:45.513:45.5
38242Gabriel Kohn38M7:15:56.813:47.7
39251Lee Meyer50M7:22:27.414:00.1
40112LARRY SWANSON60M7:31:31.814:17.3
41233Lynn Hawbaker62M7:33:42.714:21.5
42208Bonnie Busch53F7:33:42.914:21.5
43222Steve Eich46M7:41:11.214:35.7
44264Gary Tinker47M7:41:15.914:35.8
45231Dennis Hanna55M7:43:32.714:40.1
46225Mary Flaws44F7:43:33.014:40.2
47213Elizabeth Coll48F7:43:43.114:40.5
48262art sundry52M7:44:26.714:41.9
49221kay drew48F7:44:35.114:42.1
50256Frank Powers51M8:09:50.315:30.1
51253Jim Muresan46M8:23:58.015:56.9
52217Donna Creditor50F8:30:20.616:09.0
53227Mo Fraley48F8:32:51.316:13.8
54249Katie McCullough42F8:32:51.916:13.8
55258Chris Roderick33M9:08:58.917:22.4
56234Rob Hughes33M9:14:46.417:33.4

Event Information
Name of Event:Kettle 100 relay
Distance:100.00
Measurement:Miles
Date:Saturday June 4th, 2011
button: Assign Numbers 

Event Information
Name of Event:Kettle 38 night fun run
Distance:38.00
Measurement:Miles
Date:Saturday June 4th, 2011
button: Assign Numbers 
2004-2017 : All rights reserved
Terms and Conditions